Location: Kerberlivit
(48.2787°N, 4.5413°W)
Time: 15:40:10
(UTC+00:00)

METEOR-M - Pass Details

Date: 18 February 2020
Orbit: 815 x 820 km, 98.4° (Epoch: 08 April)

Event Time Altitude Azimuth Distance (km) Brightness Sun altitude
Rises 05:40:30 0° 14° (NNE) 3,360 7.5 -17.4°
Reaches altitude 10° 05:42:52 10° 15° (NNE) 2,423 6.8 -17.0°
Maximum altitude 05:48:15 86° 105° (ESE) 827 4.2 -16.1°
Drops below altitude 10° 05:53:35 10° 194° (SSW) 2,403 6.4 -15.2°
Sets 05:55:54 0° 195° (SSW) 3,330 7.2 -14.8°
